[[[{"header":{"parameterUnit":"kt","parameterCategory":2,"dx":1,"dy":1,"la1":30.253999710083008,"la2":30.299108505249023,"lo1":-89.0895004272461,"lo2":-89.04439544677734,"nx":28,"ny":28,"refTime":"2022-10-13T21:00:00:Z","depth":"0","parameterNumber":2,"parameterNumberName":"U-component_of_CURRENTS"},"data":[0.0107,0.0068,0.0112,0.0107,0.014,0.0132,0.0129,0.0122,0.0109,0.0067,0.0059,0.0035,0.0034,0.0099,0.0077,0.0053,0.0039,0.0101,0.005,-0.0023,-0.0038,-0.0053,-0.0032,0.0091,0.0091,0.0155,0.0156,0.0156,0.0208,0.0229,0.0231,0.0243,0.0246,0.0285,0.027,0.0242,0.0179,0.0128,0.0054,0.0039,0.0011,-0.0027,-0.0057,-0.0062,-0.0081,-0.0057,-0.0032,-0.0055,-0.015,-0.013,-0.0025,-0.0025,-0.0025,-0.0025,-0.0025,-0.0025,0.0389,0.0366,0.0371,0.0364,0.0374,0.0373,0.034,0.0308,0.0235,0.0123,0.0089,0.0013,-0.0019,-0.0126,-0.018,-0.0197,-0.0227,-0.021,-0.0209,-0.0195,-0.0182,-0.0254,-0.0215,-0.0215,-0.0216,-0.0216,-0.0217,0,0.051,0.0534,0.0495,0.0502,0.0482,0.0455,0.0406,0.0374,0.0282,0.0207,0.0102,0.0029,-0.0076,-0.015,-0.0229,-0.0292,-0.0333,-0.0357,-0.0348,-0.0283,-0.0224,-0.025,-0.0386,-0.0339,-0.0341,-0.0342,-0.0343,-0.0343,0.0667,0.0631,0.0617,0.0602,0.0571,0.0519,0.0472,0.0402,0.033,0.0194,0.0132,0.0025,-0.0087,-0.0219,-0.0312,-0.0397,-0.0416,-0.039,-0.0416,-0.0371,-0.0383,-0.0364,-0.0372,-0.0358,-0.0357,-0.0355,-0.0354,0,0.0765,0.0743,0.0666,0.0611,0.0603,0.0546,0.0458,0.0385,0.0299,0.0171,0.0134,-0.0026,-0.0125,-0.0253,-0.0378,-0.0432,-0.0476,-0.0514,-0.0437,-0.0448,-0.0412,-0.0406,-0.0332,-0.0335,-0.0489,-0.0488,-0.0487,0,0.0858,0.0788,0.0753,0.0692,0.0632,0.0538,0.0445,0.0345,0.0223,0.0118,-0.0,-0.0088,-0.0241,-0.0331,-0.0411,-0.048,-0.0507,-0.054,-0.0561,-0.0522,-0.0515,-0.0532,-0.0531,-0.0611,-0.0611,-0.0612,-0.0612,0,0.0937,0.0814,0.0742,0.069,0.0541,0.05,0.0416,0.0246,0.0149,0.0009,-0.0058,-0.0179,-0.0252,-0.0326,-0.0445,-0.0465,-0.0538,-0.0586,-0.0573,-0.057,-0.0564,-0.0561,-0.048,-0.0612,-0.0612,-0.0612,-0.0612,0,0.0942,0.0867,0.0759,0.0641,0.0591,0.051,0.0337,0.0222,0.0044,-0.005,-0.0152,-0.0268,-0.0343,-0.0389,-0.0488,-0.0487,-0.0527,-0.0581,-0.0583,-0.0583,-0.0627,-0.0568,-0.0493,-0.0474,-0.0611,-0.0611,-0.0611,0,0.1046,0.0896,0.0786,0.0663,0.0566,0.0413,0.032,0.0146,0.0,-0.0137,-0.0242,-0.0356,-0.0415,-0.0458,-0.0487,-0.0585,-0.0579,-0.0578,-0.0669,-0.0671,-0.0634,-0.0569,-0.0518,-0.0498,-0.0612,-0.0612,-0.0612,0,0.1061,0.0866,0.0838,0.0773,0.0539,0.0407,0.0307,0.0094,0.0006,-0.0166,-0.0281,-0.038,-0.0452,-0.0504,-0.0579,-0.0599,-0.0581,-0.0643,-0.0647,-0.0631,-0.0618,-0.0575,-0.057,-0.0625,-0.0625,-0.0625,-0.0612,0,0.1027,0.0918,0.0875,0.0644,0.0528,0.0404,0.0168,0.0072,-0.0073,-0.0253,-0.035,-0.0467,-0.0587,-0.0595,-0.0665,-0.0669,-0.0684,-0.0729,-0.0763,-0.0719,-0.0718,-0.0717,-0.0757,-0.0759,-0.0761,-0.0762,0,0,0.1086,0.0895,0.0705,0.0594,0.0469,0.0234,0.0126,-0.0021,-0.0314,-0.0385,-0.0439,-0.0629,-0.068,-0.0744,-0.0759,-0.0768,-0.0784,-0.0755,-0.0738,-0.0735,-0.0733,-0.0729,-0.0726,-0.0765,-0.0766,-0.0766,-0.0767,0,0.0984,0.0846,0.0753,0.0604,0.0346,0.0157,0.013,-0.0191,-0.0312,-0.0432,-0.0578,-0.063,-0.0714,-0.0805,-0.0848,-0.0792,-0.0822,-0.0784,-0.0721,-0.0751,-0.0745,-0.0741,-0.0736,-0.0732,-0.0771,-0.077,-0.077,0,0.0934,0.0722,0.0645,0.0347,0.0174,0.0027,-0.017,-0.0339,-0.0463,-0.0605,-0.0725,-0.0794,-0.0881,-0.0907,-0.0905,-0.0921,-0.0863,-0.0871,-0.0864,-0.0866,-0.09,-0.0893,-0.0887,-0.0964,-0.0964,-0.0964,0,0,0.0867,0.0738,0.0402,0.0291,0.0206,-0.0092,-0.0211,-0.0389,-0.0579,-0.0645,-0.0756,-0.0837,-0.0894,-0.0903,-0.0956,-0.0918,-0.0947,-0.0891,-0.0882,-0.0874,-0.0871,-0.0903,-0.0896,-0.0965,-0.0965,-0.0965,0,0,0.0801,0.0427,0.0333,0.0175,-0.0038,-0.0403,-0.0453,-0.0614,-0.0737,-0.0741,-0.0882,-0.0902,-0.0909,-0.0936,-0.0946,-0.095,-0.0993,-0.0991,-0.0921,-0.0911,-0.0902,-0.0898,-0.1029,0,0,0,0,0,0.0524,0.0478,0.0399,0.0328,-0.009,-0.0341,-0.0396,-0.0653,-0.0731,-0.0754,-0.0875,-0.0901,-0.1004,-0.1016,-0.1013,-0.0968,-0.0978,-0.0976,-0.0974,-0.0878,-0.0866,-0.0856,0,0,0,0,0,0,0.0494,0.0412,0.0396,0.0036,-0.0064,-0.0341,-0.0525,-0.0594,-0.0735,-0.0764,-0.089,-0.0905,-0.0998,-0.1017,-0.1015,-0.0971,-0.103,-0.0977,-0.0975,-0.0974,-0.0874,-0.0864,-0.0856,0,0,0,0,0,0.0468,0.0401,-0.02,0.0034,-0.0052,-0.0407,-0.0526,-0.0585,-0.0684,-0.085,-0.0879,-0.0873,-0.0995,-0.0998,-0.1016,-0.0971,-0.1031,-0.103,-0.0976,-0.0974,-0.0973,-0.0869,0,0,0,0,0,0,0.0449,0.0369,-0.0223,-0.026,0.0015,-0.0396,-0.0467,-0.0575,-0.0759,-0.0799,-0.0833,-0.0851,-0.0991,-0.0995,-0.0997,-0.097,-0.1032,-0.1032,-0.1031,-0.0975,-0.0974,-0.0973,0,0,0,0,0,0,0.0401,0.0341,-0.0241,-0.0251,-0.029,-0.0385,-0.0448,-0.0426,-0.0746,-0.0724,-0.0753,-0.0837,-0.0904,-0.0992,-0.0994,-0.0957,-0.1033,-0.1032,-0.1032,-0.1032,-0.0974,-0.0973,0,0,0,0,0,0,0.0371,0.0319,-0.0242,-0.0272,-0.0306,-0.0724,-0.0357,-0.0709,-0.0956,-0.0701,-0.0966,-0.097,-0.0891,-0.0902,-0.0991,-0.0953,-0.0956,-0.1033,-0.1033,-0.1032,-0.1032,0,0,0,0,0,0,0,0.0346,0.0757,-0.0024,-0.0289,-0.032,-0.0602,-0.061,-0.0618,-0.0957,-0.0961,-0.0965,-0.0968,-0.1038,-0.1037,-0.1036,-0.095,0,0,-0.1033,-0.1033,0,0,0,0,0,0,0,0,0.0773,0.0761,-0.0025,-0.0033,-0.0042,-0.0603,-0.061,-0.0616,-0.0957,-0.0961,-0.0964,-0.0967,-0.1038,-0.1037,-0.1036,0,0,0,0,0,0,0,0,0,0,0,0,0,0,0,-0.0026,-0.0033,0,-0.0604,-0.061,-0.0615,-0.0958,-0.0961,-0.0963,-0.0966,-0.1037,-0.1037,-0.1036,0,0,0,0,0,0,0,0,0,0,0,0,0,0,0,0,0,0,0,0,0,0,0,0,0,0,0,0,0,0,0,0,0,0,0,0,0,0,0,0,0,0,0,0,0,0,0,0,0,0,0,0,0,0,0,0,0,0,0,0,0,0,0,0,0,0,0,0,0]}],[{"header":{"parameterUnit":"kt","parameterCategory":2,"dx":1,"dy":1,"la1":30.253999710083008,"la2":30.299108505249023,"lo1":-89.0895004272461,"lo2":-89.04439544677734,"nx":28,"ny":28,"refTime":"2022-10-13T21:00:00:Z","depth":"0","parameterNumber":3,"parameterNumberName":"V-component_of_CURRENTS"},"data":[-0.3613,-0.3441,-0.3374,-0.3143,-0.3035,-0.2884,-0.2824,-0.277,-0.2754,-0.2719,-0.2725,-0.2718,-0.2722,-0.2853,-0.2896,-0.2927,-0.2912,-0.2926,-0.2884,-0.2835,-0.2827,-0.2819,-0.2824,-0.2889,-0.2888,-0.304,-0.304,-0.304,-0.3694,-0.3562,-0.3428,-0.3225,-0.3118,-0.3072,-0.296,-0.29,-0.2833,-0.2796,-0.2731,-0.2768,-0.2822,-0.2879,-0.2984,-0.2965,-0.3043,-0.2924,-0.2955,-0.2992,-0.2974,-0.2991,-0.3093,-0.3094,-0.3094,-0.3094,-0.3094,-0.3094,-0.3781,-0.3682,-0.3509,-0.3357,-0.324,-0.3128,-0.3044,-0.2988,-0.2909,-0.2804,-0.2784,-0.2717,-0.2791,-0.2822,-0.2834,-0.2908,-0.2869,-0.29,-0.2811,-0.2824,-0.2878,-0.2881,-0.2924,-0.2923,-0.2922,-0.2921,-0.292,0,-0.3813,-0.3744,-0.361,-0.3436,-0.3322,-0.3201,-0.3099,-0.3062,-0.2974,-0.2913,-0.2827,-0.2768,-0.2743,-0.2751,-0.275,-0.2762,-0.2733,-0.2746,-0.2709,-0.2763,-0.2811,-0.2829,-0.2774,-0.2841,-0.284,-0.2838,-0.2838,-0.2837,-0.3841,-0.3766,-0.3559,-0.3467,-0.3375,-0.3269,-0.319,-0.3106,-0.3049,-0.2932,-0.288,-0.2794,-0.272,-0.2653,-0.2666,-0.2661,-0.2613,-0.2709,-0.2718,-0.2717,-0.2612,-0.2621,-0.266,-0.2819,-0.2822,-0.2823,-0.2825,0,-0.3845,-0.372,-0.3584,-0.3409,-0.3356,-0.3291,-0.3156,-0.3099,-0.3043,-0.2937,-0.2907,-0.2801,-0.2736,-0.2667,-0.2599,-0.2593,-0.2582,-0.2572,-0.2678,-0.2663,-0.2673,-0.2599,-0.2647,-0.2696,-0.2615,-0.2616,-0.2616,0,-0.3782,-0.3705,-0.3508,-0.3444,-0.3346,-0.3255,-0.318,-0.3118,-0.3029,-0.2935,-0.2872,-0.2803,-0.271,-0.2648,-0.2624,-0.2591,-0.2566,-0.258,-0.2551,-0.2619,-0.2626,-0.2577,-0.2502,-0.2528,-0.2528,-0.2528,-0.2528,0,-0.3753,-0.3592,-0.3488,-0.3433,-0.3264,-0.3233,-0.3178,-0.308,-0.3011,-0.2921,-0.2868,-0.2775,-0.2705,-0.2683,-0.2606,-0.26,-0.2552,-0.2514,-0.2539,-0.254,-0.2578,-0.2582,-0.2636,-0.2528,-0.2527,-0.2527,-0.2527,0,-0.3671,-0.3557,-0.3449,-0.3289,-0.3258,-0.3223,-0.3132,-0.3081,-0.2971,-0.2915,-0.2839,-0.2747,-0.2676,-0.2669,-0.2594,-0.259,-0.2574,-0.2536,-0.2534,-0.252,-0.2459,-0.256,-0.2638,-0.2615,-0.2496,-0.2496,-0.2495,0,-0.3648,-0.3513,-0.3406,-0.3333,-0.3254,-0.3181,-0.3136,-0.3057,-0.2986,-0.2905,-0.2811,-0.2704,-0.2676,-0.2621,-0.2608,-0.2505,-0.2524,-0.2517,-0.2434,-0.2432,-0.2458,-0.2519,-0.2602,-0.2629,-0.2492,-0.2492,-0.2492,0,-0.3606,-0.3388,-0.3384,-0.3308,-0.3204,-0.317,-0.3131,-0.304,-0.2993,-0.2915,-0.2841,-0.2714,-0.2664,-0.2589,-0.2501,-0.2486,-0.2516,-0.2449,-0.2445,-0.247,-0.2488,-0.2511,-0.2515,-0.2469,-0.2469,-0.247,-0.2489,0,-0.3434,-0.3358,-0.3354,-0.3234,-0.3196,-0.3173,-0.3076,-0.3046,-0.299,-0.2907,-0.2805,-0.2688,-0.2565,-0.2531,-0.2457,-0.2421,-0.241,-0.236,-0.2323,-0.2362,-0.2365,-0.2367,-0.2307,-0.2305,-0.2304,-0.2303,0,0,-0.3422,-0.3321,-0.3228,-0.3175,-0.3133,-0.3079,-0.3046,-0.2995,-0.2887,-0.2836,-0.2815,-0.2613,-0.2516,-0.2397,-0.2395,-0.2342,-0.2332,-0.2328,-0.2339,-0.2344,-0.2347,-0.2352,-0.2357,-0.23,-0.2299,-0.2299,-0.2298,0,-0.3336,-0.3264,-0.3219,-0.3168,-0.3098,-0.3043,-0.3047,-0.2956,-0.2905,-0.2828,-0.2718,-0.264,-0.249,-0.2391,-0.2322,-0.2325,-0.2271,-0.2297,-0.2354,-0.2327,-0.2333,-0.2339,-0.2345,-0.2351,-0.2294,-0.2295,-0.2295,0,-0.3256,-0.3173,-0.3145,-0.305,-0.3017,-0.2974,-0.2917,-0.2898,-0.2856,-0.2728,-0.2646,-0.2557,-0.2424,-0.2337,-0.2296,-0.2273,-0.2224,-0.2211,-0.2217,-0.2229,-0.2198,-0.2206,-0.2213,-0.2127,-0.2127,-0.2127,0,0,-0.3197,-0.3134,-0.3036,-0.3032,-0.3004,-0.2935,-0.2913,-0.2863,-0.2782,-0.2746,-0.2642,-0.2532,-0.2432,-0.2374,-0.2279,-0.2213,-0.2191,-0.2195,-0.2203,-0.221,-0.2225,-0.2196,-0.2203,-0.2126,-0.2126,-0.2126,0,0,-0.3186,-0.3041,-0.3008,-0.2966,-0.293,-0.2845,-0.2843,-0.2799,-0.2717,-0.27,-0.2566,-0.2531,-0.2448,-0.2376,-0.2384,-0.2263,-0.2226,-0.2222,-0.231,-0.2319,-0.2326,-0.2366,-0.2286,0,0,0,0,0,-0.3072,-0.3057,-0.3029,-0.3012,-0.2902,-0.2866,-0.2851,-0.2774,-0.2748,-0.2748,-0.2636,-0.257,-0.2345,-0.2349,-0.2321,-0.2313,-0.212,-0.2121,-0.2122,-0.222,-0.223,-0.2238,0,0,0,0,0,0,-0.3064,-0.3044,-0.303,-0.2945,-0.292,-0.2864,-0.279,-0.2768,-0.2745,-0.2735,-0.2593,-0.2566,-0.2463,-0.2356,-0.2332,-0.2327,-0.2294,-0.2121,-0.2122,-0.2122,-0.2223,-0.2232,-0.2239,0,0,0,0,0,-0.3059,-0.3042,-0.2883,-0.2944,-0.2923,-0.2824,-0.2788,-0.277,-0.275,-0.2602,-0.2575,-0.2696,-0.2466,-0.2438,-0.2341,-0.2341,-0.2309,-0.2301,-0.2121,-0.2122,-0.2123,-0.2227,0,0,0,0,0,0,-0.3054,-0.3021,-0.2877,-0.2868,-0.2935,-0.2826,-0.2805,-0.2772,-0.2615,-0.2591,-0.2696,-0.2689,-0.2469,-0.2446,-0.2425,-0.2351,-0.2322,-0.2314,-0.2308,-0.2122,-0.2122,-0.2123,0,0,0,0,0,0,-0.303,-0.3014,-0.2872,-0.2864,-0.2853,-0.2827,-0.2809,-0.2726,-0.2612,-0.2715,-0.2706,-0.2694,-0.2481,-0.2452,-0.2435,-0.231,-0.2332,-0.2324,-0.2318,-0.2315,-0.2122,-0.2123,0,0,0,0,0,0,-0.3022,-0.3008,-0.2866,-0.2857,-0.2848,-0.2736,-0.2749,-0.2626,-0.2652,-0.2722,-0.2648,-0.2646,-0.2487,-0.2469,-0.2443,-0.2326,-0.2314,-0.2332,-0.2326,-0.2322,-0.232,0,0,0,0,0,0,0,-0.3015,-0.3124,-0.2935,-0.2852,-0.2843,-0.2784,-0.2781,-0.2778,-0.2652,-0.265,-0.2648,-0.2646,-0.2379,-0.237,-0.2361,-0.2339,0,0,-0.2333,-0.2329,0,0,0,0,0,0,0,0,-0.3129,-0.3125,-0.2935,-0.2933,-0.2931,-0.2783,-0.2781,-0.2779,-0.2651,-0.265,-0.2648,-0.2647,-0.2377,-0.2369,-0.2362,0,0,0,0,0,0,0,0,0,0,0,0,0,0,0,-0.2934,-0.2933,0,-0.2783,-0.2781,-0.2779,-0.2651,-0.265,-0.2649,-0.2648,-0.2375,-0.2369,-0.2363,0,0,0,0,0,0,0,0,0,0,0,0,0,0,0,0,0,0,0,0,0,0,0,0,0,0,0,0,0,0,0,0,0,0,0,0,0,0,0,0,0,0,0,0,0,0,0,0,0,0,0,0,0,0,0,0,0,0,0,0,0,0,0,0,0,0,0,0,0]}]],[[{"header":{"parameterUnit":"kt","parameterCategory":2,"dx":1,"dy":1,"la1":30.253999710083008,"la2":30.299108505249023,"lo1":-89.0895004272461,"lo2":-89.04439544677734,"nx":28,"ny":28,"refTime":"2022-10-13T21:00:00:Z","depth":"2","parameterNumber":2,"parameterNumberName":"U-component_of_CURRENTS"},"data":[0.0335,0.036,0.0419,0.0449,0.049,0.052,0.055,0.0476,0.0408,0.0157,0.0033,-0.0157,-0.0002,-0.0104,-0.0038,0.0084,0.034,0.0068,0.0538,0.0608,0.066,0.0873,0.0768,0,0,0,0,0,0.0371,0.0396,0.0453,0.054,0.0574,0.0657,0.0749,0.0733,0.0711,0.0639,0.055,0.0267,0.0155,0.0305,0.0431,0.0491,0.0547,0.0502,0.0537,0.059,0.064,0.0543,0.01,0.0101,0.0101,0.0101,0,0,0.0444,0.0459,0.0522,0.0602,0.0673,0.0744,0.0789,0.0885,0.0925,0.0919,0.0984,0.0859,0.0819,0.0727,0.082,0.0987,0.1109,0.1066,0.109,0.1121,0.104,0.094,0.0732,0.0736,0.0739,0.0742,0.0744,0,0.0531,0.0555,0.0615,0.0689,0.0766,0.0865,0.0985,0.1016,0.12,0.1224,0.1272,0.1257,0.1314,0.1229,0.1285,0.1318,0.1547,0.1429,0.1933,0.1388,0.1292,0.131,0.1338,0.1168,0.1175,0.1179,0.1183,0.1185,0.063,0.0639,0.0769,0.0811,0.0877,0.0974,0.1054,0.1216,0.1289,0.1435,0.146,0.1539,0.1536,0.1652,0.1732,0.1788,0.1964,0.1577,0.1556,0.1941,0.1958,0.1965,0.197,0.1252,0.1244,0.1237,0.1231,0,0.0688,0.0769,0.0837,0.0989,0.1037,0.1079,0.1251,0.1313,0.1416,0.1496,0.1514,0.1658,0.1735,0.1877,0.2025,0.2044,0.2116,0.2094,0.1782,0.1752,0.1999,0.1997,0.1938,0.1932,0.1927,0.1923,0.192,0,0.0809,0.0857,0.0987,0.102,0.1091,0.1242,0.1319,0.1419,0.1541,0.1605,0.1714,0.176,0.1924,0.2009,0.21,0.2116,0.221,0.2129,0.2138,0.1916,0.1882,0.2343,0.2345,0.2328,0.2329,0.2329,0.2329,0,0.0849,0.1003,0.1044,0.1104,0.1285,0.1334,0.1429,0.1573,0.1641,0.1741,0.1761,0.1888,0.193,0.2021,0.2128,0.2142,0.2239,0.2287,0.2169,0.2158,0.1958,0.1926,0.2329,0.2329,0.2329,0.2329,0.2329,0,0.096,0.1027,0.11,0.1257,0.1294,0.137,0.1507,0.1604,0.1734,0.1774,0.1847,0.192,0.202,0.2031,0.2165,0.2152,0.2187,0.2249,0.2251,0.2137,0.2161,0.1856,0.1768,0.226,0.226,0.226,0.2259,0,0.0974,0.1056,0.1142,0.1256,0.1321,0.1443,0.1539,0.1646,0.1721,0.1791,0.1889,0.1983,0.2028,0.2061,0.211,0.2232,0.2237,0.2229,0.2312,0.2313,0.2138,0.2112,0.184,0.1782,0.2256,0.2257,0.2257,0,0.0974,0.1113,0.1125,0.1177,0.133,0.1404,0.151,0.1628,0.1658,0.1756,0.1802,0.2002,0.2003,0.2099,0.2188,0.2231,0.2231,0.2254,0.2258,0.2198,0.2282,0.2126,0.2113,0.2278,0.2279,0.228,0.2254,0,0.1031,0.1097,0.1133,0.1224,0.1318,0.139,0.15,0.1564,0.1587,0.1646,0.1775,0.1926,0.2054,0.2107,0.219,0.2268,0.2259,0.2309,0.2297,0.2315,0.2303,0.2305,0.2307,0.2308,0.231,0.2311,0,0,0.1004,0.1057,0.1128,0.1192,0.126,0.1334,0.1394,0.1476,0.1612,0.1648,0.1637,0.1894,0.2015,0.2183,0.2195,0.2286,0.2291,0.2256,0.232,0.2321,0.2322,0.231,0.231,0.2313,0.2313,0.2313,0.2314,0,0.1003,0.1062,0.1087,0.1176,0.1276,0.1346,0.1353,0.1456,0.1485,0.1624,0.168,0.1782,0.2009,0.2104,0.219,0.2293,0.2302,0.2323,0.2279,0.2328,0.2327,0.2327,0.2314,0.2314,0.2317,0.2316,0.2316,0,0.0985,0.1037,0.1057,0.118,0.1254,0.1337,0.1335,0.141,0.1463,0.1563,0.1665,0.1767,0.1933,0.2082,0.2152,0.215,0.23,0.2299,0.2296,0.2284,0.2335,0.2335,0.2335,0.2327,0.2326,0.2326,0,0,0.098,0.1014,0.1123,0.1185,0.1228,0.1314,0.137,0.1391,0.1495,0.1532,0.1629,0.1745,0.1887,0.1962,0.2105,0.2264,0.2282,0.2293,0.2292,0.2291,0.2279,0.2329,0.233,0.2323,0.2323,0.2323,0,0,0.0976,0.1054,0.1072,0.1141,0.1244,0.1361,0.1412,0.1423,0.1536,0.1511,0.1625,0.1664,0.1809,0.1902,0.1856,0.2068,0.2078,0.2094,0.199,0.1992,0.1992,0.1933,0.1873,0,0,0,0,0,0.1004,0.1046,0.1062,0.1085,0.1232,0.1364,0.139,0.143,0.1378,0.1425,0.152,0.1543,0.189,0.1853,0.1903,0.1917,0.2291,0.2297,0.2302,0.221,0.221,0.221,0,0,0,0,0,0,0.1013,0.1038,0.1062,0.1172,0.1207,0.1361,0.132,0.1335,0.1374,0.1369,0.1526,0.155,0.1638,0.1834,0.1877,0.1888,0.1859,0.2294,0.2298,0.2303,0.221,0.221,0.221,0,0,0,0,0,0.1021,0.1041,0.1246,0.1175,0.1205,0.1284,0.1315,0.1327,0.1351,0.1511,0.1531,0.1368,0.1639,0.168,0.186,0.1864,0.183,0.1845,0.2297,0.23,0.2304,0.221,0,0,0,0,0,0,0.1027,0.1075,0.1256,0.127,0.1122,0.1276,0.1293,0.132,0.1492,0.1512,0.1363,0.1358,0.1642,0.1673,0.1704,0.1849,0.1806,0.1822,0.1832,0.23,0.2303,0.2305,0,0,0,0,0,0,0.1065,0.1086,0.1263,0.1194,0.1201,0.1269,0.1284,0.1464,0.1496,0.1336,0.1336,0.1359,0.1606,0.1669,0.1693,0.1974,0.1787,0.1803,0.1813,0.182,0.2302,0.2304,0,0,0,0,0,0,0.1076,0.1094,0.1191,0.1196,0.1201,0.1365,0.1434,0.1589,0.1405,0.133,0.1392,0.1387,0.1603,0.1628,0.1685,0.1955,0.1969,0.1788,0.1798,0.1806,0.1811,0,0,0,0,0,0,0,0.1085,0.0932,0.1168,0.1198,0.1202,0.1399,0.1403,0.1408,0.1404,0.1399,0.1394,0.1389,0.17,0.1717,0.1734,0.1941,0,0,0.1786,0.1794,0,0,0,0,0,0,0,0,0.0928,0.0931,0.1169,0.1172,0.1174,0.14,0.1403,0.1407,0.1403,0.1399,0.1395,0.1391,0.1704,0.1718,0.1732,0,0,0,0,0,0,0,0,0,0,0,0,0,0,0,0.1169,0.1171,0,0.14,0.1403,0.1406,0.1402,0.1399,0.1396,0.1392,0.1708,0.1719,0.1731,0,0,0,0,0,0,0,0,0,0,0,0,0,0,0,0,0,0,0,0,0,0,0,0,0,0,0,0,0,0,0,0,0,0,0,0,0,0,0,0,0,0,0,0,0,0,0,0,0,0,0,0,0,0,0,0,0,0,0,0,0,0,0,0,0,0,0,0,0]}],[{"header":{"parameterUnit":"kt","parameterCategory":2,"dx":1,"dy":1,"la1":30.253999710083008,"la2":30.299108505249023,"lo1":-89.0895004272461,"lo2":-89.04439544677734,"nx":28,"ny":28,"refTime":"2022-10-13T21:00:00:Z","depth":"2","parameterNumber":3,"parameterNumberName":"V-component_of_CURRENTS"},"data":[0.07,0.0742,0.086,0.1051,0.1159,0.1275,0.1314,0.1252,0.1186,0.1032,0.0889,0.0795,0.0691,0.0561,0.0554,0.0548,0.0471,0.0535,0.0458,0.0451,0.0439,0.0368,0.0471,0,0,0,0,0,0.077,0.0841,0.0967,0.1135,0.1266,0.1302,0.14,0.1377,0.1334,0.1214,0.1132,0.0899,0.083,0.0605,0.057,0.0551,0.0558,0.0419,0.0414,0.0402,0.0391,0.0463,0.0511,0.0511,0.051,0.051,0,0,0.0937,0.0979,0.1092,0.1186,0.129,0.1401,0.1422,0.1427,0.1384,0.1199,0.1218,0.1045,0.0861,0.0622,0.0544,0.0434,0.0441,0.0313,0.0307,0.03,0.0368,0.0392,0.0392,0.0391,0.0391,0.039,0.0389,0,0.1084,0.1118,0.1182,0.1317,0.1356,0.1432,0.1414,0.1404,0.1287,0.1201,0.1095,0.1029,0.0859,0.074,0.0523,0.0444,0.0228,0.0221,0.0094,0.0299,0.0319,0.0318,0.0317,0.0296,0.0294,0.0293,0.0292,0.0292,0.1211,0.1235,0.1364,0.1413,0.142,0.1407,0.1399,0.1311,0.126,0.1068,0.1025,0.0826,0.0733,0.0532,0.0419,0.027,0.0146,0.0185,0.0242,0.0153,0.0151,0.0157,0.0162,0.0275,0.0277,0.0279,0.028,0,0.1281,0.1359,0.1404,0.147,0.1481,0.1443,0.1382,0.1331,0.1169,0.1039,0.0963,0.0763,0.0608,0.0438,0.0288,0.0233,0.0147,0.0114,0.0187,0.0193,0.0152,0.0159,0.0098,0.0099,0.0101,0.0101,0.0102,0,0.1399,0.1397,0.1499,0.1499,0.1505,0.1458,0.1373,0.1264,0.1121,0.1024,0.0828,0.0741,0.0542,0.0427,0.0324,0.022,0.0187,0.0185,0.0178,0.0245,0.0255,0.018,0.0187,0.0128,0.0129,0.0129,0.013,0,0.1421,0.1473,0.1501,0.1496,0.1484,0.1433,0.137,0.1204,0.112,0.0915,0.0818,0.067,0.0559,0.0462,0.0315,0.0319,0.0201,0.0215,0.0195,0.0197,0.0252,0.0262,0.0131,0.0131,0.0132,0.0132,0.0132,0,0.144,0.1489,0.1508,0.1513,0.1484,0.1438,0.1288,0.1213,0.1031,0.0905,0.0755,0.064,0.0537,0.0478,0.0356,0.0374,0.0296,0.0264,0.026,0.0322,0.033,0.0306,0.0281,0.02,0.0201,0.0202,0.0203,0,0.1473,0.1501,0.1462,0.1445,0.1434,0.1297,0.1244,0.1108,0.0956,0.0831,0.0713,0.0616,0.054,0.0469,0.0423,0.0387,0.0331,0.0379,0.0288,0.0285,0.0339,0.0308,0.0382,0.0293,0.0216,0.0215,0.0214,0,0.1449,0.1443,0.1416,0.1409,0.1274,0.1224,0.1143,0.1014,0.0927,0.0765,0.0672,0.0618,0.0503,0.0498,0.0456,0.0425,0.0351,0.0385,0.0384,0.0335,0.0258,0.0317,0.0313,0.0341,0.034,0.034,0.0224,0,0.1457,0.1426,0.1414,0.1314,0.1255,0.1191,0.1051,0.0954,0.0801,0.0695,0.06,0.0559,0.049,0.0474,0.0468,0.043,0.0401,0.0418,0.0415,0.0395,0.0346,0.0337,0.0441,0.0441,0.0442,0.0442,0,0,0.1419,0.138,0.1269,0.1242,0.1182,0.0996,0.0962,0.0875,0.0723,0.0664,0.0596,0.0507,0.0495,0.0499,0.0474,0.0483,0.0444,0.0445,0.0408,0.0405,0.0401,0.0353,0.0345,0.0443,0.0443,0.0443,0.0443,0,0.1392,0.1303,0.1282,0.1216,0.1069,0.0986,0.0941,0.0781,0.0694,0.0624,0.0573,0.0525,0.0494,0.0491,0.0492,0.0489,0.0445,0.0458,0.0435,0.0412,0.0408,0.0404,0.0356,0.0349,0.0444,0.0444,0.0444,0,0.1333,0.125,0.1217,0.11,0.101,0.096,0.0838,0.0735,0.0678,0.0627,0.0546,0.0516,0.052,0.051,0.0496,0.0493,0.0447,0.0471,0.047,0.0473,0.045,0.0446,0.0442,0.0495,0.0495,0.0495,0,0,0.1303,0.1258,0.1116,0.1078,0.1028,0.0881,0.0822,0.0724,0.065,0.061,0.0554,0.0515,0.0518,0.0499,0.0507,0.0506,0.0493,0.0477,0.0475,0.0473,0.0475,0.0452,0.0447,0.0495,0.0495,0.0495,0,0,0.1285,0.1138,0.1064,0.1022,0.0922,0.0798,0.0764,0.0661,0.0604,0.0567,0.053,0.0525,0.0502,0.0503,0.051,0.0476,0.0486,0.0486,0.0468,0.0466,0.0463,0.0463,0.0486,0,0,0,0,0,0.1156,0.1161,0.1095,0.1066,0.0914,0.0834,0.0813,0.0689,0.0596,0.0582,0.0532,0.0508,0.0498,0.0506,0.0509,0.0474,0.05,0.0499,0.0499,0.0477,0.0474,0.0472,0,0,0,0,0,0,0.1144,0.1114,0.1094,0.0974,0.0935,0.0834,0.0743,0.0712,0.0596,0.0577,0.0518,0.051,0.051,0.0503,0.0506,0.0472,0.0485,0.05,0.0499,0.0498,0.0476,0.0474,0.0472,0,0,0,0,0,0.1134,0.1109,0.0893,0.0973,0.094,0.0775,0.0741,0.0713,0.0617,0.0587,0.0571,0.0513,0.0513,0.0511,0.0505,0.047,0.0483,0.0484,0.0499,0.0499,0.0498,0.0475,0,0,0,0,0,0,0.1126,0.1107,0.0884,0.0868,0.0941,0.0777,0.0748,0.0716,0.0634,0.0613,0.0592,0.058,0.0517,0.0514,0.0513,0.0468,0.0481,0.0482,0.0483,0.0499,0.0498,0.0498,0,0,0,0,0,0,0.1118,0.1097,0.0877,0.0843,0.0824,0.078,0.0754,0.078,0.0639,0.0647,0.0631,0.0588,0.0536,0.0517,0.0516,0.056,0.0479,0.048,0.0481,0.0482,0.0499,0.0498,0,0,0,0,0,0,0.1107,0.1088,0.0848,0.0833,0.0816,0.0648,0.0805,0.0673,0.0546,0.0658,0.0535,0.053,0.0543,0.0538,0.0518,0.0564,0.0561,0.0479,0.048,0.0481,0.0481,0,0,0,0,0,0,0,0.1097,0.1252,0.0957,0.0824,0.0809,0.0726,0.0723,0.0721,0.0545,0.054,0.0536,0.0532,0.0472,0.0473,0.0475,0.0567,0,0,0.0479,0.048,0,0,0,0,0,0,0,0,0.1256,0.1253,0.0956,0.0952,0.0948,0.0725,0.0723,0.0721,0.0544,0.0541,0.0537,0.0534,0.0473,0.0474,0.0475,0,0,0,0,0,0,0,0,0,0,0,0,0,0,0,0.0956,0.0952,0,0.0725,0.0724,0.0722,0.0543,0.0541,0.0538,0.0535,0.0473,0.0474,0.0475,0,0,0,0,0,0,0,0,0,0,0,0,0,0,0,0,0,0,0,0,0,0,0,0,0,0,0,0,0,0,0,0,0,0,0,0,0,0,0,0,0,0,0,0,0,0,0,0,0,0,0,0,0,0,0,0,0,0,0,0,0,0,0,0,0,0,0,0,0]}]],[[{"header":{"parameterUnit":"kt","parameterCategory":2,"dx":1,"dy":1,"la1":30.253999710083008,"la2":30.299108505249023,"lo1":-89.0895004272461,"lo2":-89.04439544677734,"nx":28,"ny":28,"refTime":"2022-10-13T21:00:00:Z","depth":"4","parameterNumber":2,"parameterNumberName":"U-component_of_CURRENTS"},"data":[-0.0651,-0.0689,-0.0747,-0.0609,-0.0579,-0.0523,-0.0546,-0.0592,-0.0502,-0.0596,-0.0494,-0.0591,-0.0443,-0.0537,-0.0358,-0.0357,-0.0712,-0.0363,-0.0362,-0.1031,-0.1072,-0.1108,-0.1111,0,0,0,0,0,-0.0738,-0.0797,-0.0799,-0.0847,-0.0809,-0.0857,-0.0864,-0.0953,-0.1033,-0.0739,-0.0944,-0.0641,-0.0539,-0.0466,-0.0391,-0.0461,-0.0738,-0.0378,-0.0949,-0.1056,-0.1102,-0.1089,0,0,0,0,0,0,-0.0936,-0.0943,-0.1069,-0.1109,-0.1123,-0.1063,-0.1172,-0.1062,-0.1119,-0.1168,-0.0956,-0.0873,-0.0852,-0.0733,-0.0649,-0.0649,-0.0726,-0.0883,-0.0934,-0.0979,-0.0933,-0.0758,-0.0328,0,0,0,0,0,-0.1087,-0.1222,-0.1251,-0.1351,-0.1408,-0.1406,-0.1479,-0.1491,-0.1568,-0.1697,-0.1394,-0.1332,-0.1033,-0.0975,-0.0938,-0.0937,-0.1425,-0.1252,-0.1281,-0.1512,-0.1416,-0.1394,-0.1422,-0.1273,-0.1279,-0.1283,-0.1285,0,-0.1238,-0.1314,-0.147,-0.1498,-0.1583,-0.1765,-0.1787,-0.1996,-0.1935,-0.1957,-0.1793,-0.1686,-0.1576,-0.1285,-0.1365,-0.134,-0.1356,-0.1366,-0.1612,-0.149,-0.1453,-0.1471,-0.1485,-0.1321,-0.1318,-0.1315,-0.1313,0,-0.1289,-0.1426,-0.1476,-0.1612,-0.1685,-0.1767,-0.1934,-0.1954,-0.2185,-0.2156,-0.2196,-0.2134,-0.1912,-0.198,-0.1938,-0.1925,-0.1832,-0.172,-0.2017,-0.1984,-0.155,-0.155,-0.1381,-0.1368,-0.1357,-0.1347,-0.1339,0,-0.1328,-0.1386,-0.1541,-0.1581,-0.1654,-0.1732,-0.1877,-0.1936,-0.2118,-0.2102,-0.2282,-0.22,-0.2381,-0.229,-0.2288,-0.2058,-0.2236,-0.1994,-0.1937,-0.2347,-0.2343,-0.2285,-0.2274,-0.2393,-0.2395,-0.2396,-0.2397,0,-0.1332,-0.1397,-0.1469,-0.1478,-0.1529,-0.1617,-0.1678,-0.1825,-0.19,-0.2121,-0.2136,-0.2325,-0.2384,-0.2423,-0.2317,-0.2375,-0.2262,-0.2361,-0.2021,-0.1992,-0.2289,-0.2276,-0.2399,-0.2399,-0.24,-0.24,-0.2401,0,-0.1314,-0.1365,-0.1449,-0.146,-0.1477,-0.1531,-0.1617,-0.1694,-0.189,-0.1963,-0.2143,-0.2222,-0.2371,-0.2376,-0.2419,-0.2407,-0.2367,-0.2352,-0.2346,-0.197,-0.1886,-0.2119,-0.2199,-0.2199,-0.2199,-0.2199,-0.2199,0,-0.1258,-0.1353,-0.1357,-0.14,-0.1433,-0.1437,-0.1517,-0.1591,-0.1672,-0.1795,-0.1997,-0.2163,-0.2189,-0.2279,-0.2335,-0.2343,-0.2358,-0.2378,-0.2231,-0.2224,-0.1939,-0.194,-0.2377,-0.2196,-0.2197,-0.2197,-0.2197,0,-0.1212,-0.13,-0.1324,-0.1334,-0.1354,-0.1356,-0.145,-0.151,-0.1588,-0.1698,-0.1808,-0.2062,-0.2112,-0.219,-0.2264,-0.23,-0.2341,-0.2214,-0.2212,-0.2159,-0.2318,-0.1975,-0.1942,-0.2365,-0.2367,-0.2369,-0.2196,0,-0.1149,-0.1213,-0.1266,-0.1299,-0.1309,-0.1346,-0.1364,-0.1419,-0.1442,-0.1473,-0.1687,-0.1844,-0.1969,-0.2023,-0.206,-0.2197,-0.2091,-0.211,-0.2059,-0.2129,-0.2028,-0.2031,-0.1964,-0.1961,-0.1959,-0.1957,0,0,-0.1067,-0.1122,-0.1157,-0.1202,-0.1203,-0.1191,-0.1206,-0.1263,-0.1304,-0.1366,-0.1353,-0.1616,-0.1728,-0.1949,-0.1963,-0.2016,-0.1953,-0.1976,-0.2073,-0.2087,-0.2099,-0.2011,-0.2016,-0.1952,-0.1952,-0.1951,-0.195,0,-0.101,-0.1068,-0.1136,-0.1143,-0.118,-0.1159,-0.1163,-0.1157,-0.1186,-0.1306,-0.134,-0.1487,-0.1654,-0.1751,-0.1826,-0.1973,-0.1918,-0.1958,-0.2006,-0.2052,-0.2069,-0.2083,-0.2001,-0.2007,-0.1944,-0.1944,-0.1945,0,-0.092,-0.0941,-0.0977,-0.101,-0.1039,-0.1053,-0.0997,-0.1048,-0.1068,-0.1121,-0.1228,-0.133,-0.1439,-0.1614,-0.1691,-0.1648,-0.1843,-0.1829,-0.1839,-0.1828,-0.1872,-0.189,-0.1906,-0.1705,-0.1705,-0.1705,0,0,-0.0876,-0.0941,-0.0921,-0.0989,-0.101,-0.0992,-0.1014,-0.0989,-0.1043,-0.1072,-0.1143,-0.1239,-0.1383,-0.1461,-0.1584,-0.176,-0.172,-0.1808,-0.1819,-0.1829,-0.1824,-0.1869,-0.1886,-0.1705,-0.1705,-0.1705,0,0,-0.0832,-0.0843,-0.0839,-0.0914,-0.0913,-0.0898,-0.0968,-0.092,-0.1013,-0.1045,-0.1108,-0.1147,-0.1337,-0.1361,-0.1348,-0.1556,-0.1492,-0.1503,-0.1592,-0.1607,-0.1617,-0.1585,-0.1347,0,0,0,0,0,-0.0769,-0.0843,-0.0841,-0.0851,-0.0898,-0.0912,-0.0921,-0.0904,-0.0873,-0.0899,-0.0997,-0.1022,-0.1332,-0.1324,-0.1376,-0.1463,-0.1703,-0.1703,-0.1703,-0.186,-0.1874,-0.1886,0,0,0,0,0,0,-0.0773,-0.0782,-0.0838,-0.0826,-0.0837,-0.091,-0.0851,-0.085,-0.0868,-0.086,-0.1001,-0.1027,-0.1091,-0.1304,-0.135,-0.1431,-0.1332,-0.1703,-0.1703,-0.1703,-0.1865,-0.1877,-0.1887,0,0,0,0,0,-0.0775,-0.0783,-0.0856,-0.0826,-0.0836,-0.0832,-0.0847,-0.0845,-0.086,-0.0979,-0.0998,-0.0841,-0.1091,-0.1135,-0.1332,-0.1408,-0.1301,-0.1318,-0.1703,-0.1703,-0.1703,-0.1871,0,0,0,0,0,0,-0.0777,-0.0794,-0.0858,-0.0862,-0.0786,-0.0827,-0.0829,-0.0842,-0.0982,-0.0996,-0.0828,-0.0821,-0.1093,-0.1126,-0.116,-0.1395,-0.1276,-0.1293,-0.1303,-0.1703,-0.1703,-0.1703,0,0,0,0,0,0,-0.079,-0.0797,-0.0861,-0.081,-0.0808,-0.0822,-0.0824,-0.101,-0.099,-0.0825,-0.082,-0.0824,-0.1094,-0.1121,-0.1147,-0.1434,-0.1257,-0.1273,-0.1284,-0.1291,-0.1703,-0.1703,0,0,0,0,0,0,-0.0793,-0.08,-0.0809,-0.0808,-0.0806,-0.0849,-0.0995,-0.1079,-0.0834,-0.0825,-0.0823,-0.0818,-0.1094,-0.1117,-0.1139,-0.1414,-0.1429,-0.1258,-0.1269,-0.1276,-0.1281,0,0,0,0,0,0,0,-0.0796,-0.0748,-0.0832,-0.0806,-0.0804,-0.0896,-0.0897,-0.0899,-0.0833,-0.0829,-0.0824,-0.082,-0.1166,-0.1183,-0.1201,-0.1398,0,0,-0.1256,-0.1264,0,0,0,0,0,0,0,0,-0.0746,-0.0747,-0.0832,-0.0833,-0.0833,-0.0896,-0.0897,-0.0899,-0.0832,-0.0829,-0.0825,-0.0822,-0.117,-0.1185,-0.1199,0,0,0,0,0,0,0,0,0,0,0,0,0,0,0,-0.0832,-0.0833,0,-0.0896,-0.0897,-0.0898,-0.0832,-0.0829,-0.0826,-0.0823,-0.1174,-0.1186,-0.1198,0,0,0,0,0,0,0,0,0,0,0,0,0,0,0,0,0,0,0,0,0,0,0,0,0,0,0,0,0,0,0,0,0,0,0,0,0,0,0,0,0,0,0,0,0,0,0,0,0,0,0,0,0,0,0,0,0,0,0,0,0,0,0,0,0,0,0,0,0]}],[{"header":{"parameterUnit":"kt","parameterCategory":2,"dx":1,"dy":1,"la1":30.253999710083008,"la2":30.299108505249023,"lo1":-89.0895004272461,"lo2":-89.04439544677734,"nx":28,"ny":28,"refTime":"2022-10-13T21:00:00:Z","depth":"4","parameterNumber":3,"parameterNumberName":"V-component_of_CURRENTS"},"data":[-0.0325,-0.0372,-0.0421,-0.0518,-0.0568,-0.0699,-0.0773,-0.0815,-0.0782,-0.0786,-0.0728,-0.0709,-0.062,-0.0675,-0.0542,-0.0536,-0.0349,-0.0513,-0.0512,-0.0196,-0.0183,-0.0171,-0.0224,0,0,0,0,0,-0.0349,-0.0368,-0.0459,-0.0562,-0.0679,-0.0723,-0.0862,-0.0902,-0.0923,-0.0869,-0.0839,-0.0793,-0.0696,-0.0676,-0.0592,-0.065,-0.0413,-0.0554,-0.0286,-0.0188,-0.0173,-0.023,0,0,0,0,0,0,-0.0404,-0.0436,-0.0486,-0.0561,-0.0682,-0.0785,-0.0844,-0.0855,-0.0871,-0.0832,-0.0852,-0.078,-0.073,-0.0631,-0.0568,-0.0475,-0.039,-0.0282,-0.0263,-0.0248,-0.031,-0.0377,-0.0488,0,0,0,0,0,-0.0436,-0.0441,-0.0497,-0.0598,-0.0666,-0.0774,-0.0823,-0.0846,-0.0843,-0.0834,-0.079,-0.0724,-0.0693,-0.0563,-0.0485,-0.0359,-0.0187,-0.0199,-0.0186,-0.0072,-0.0104,-0.0079,-0.007,-0.0116,-0.0114,-0.0113,-0.0112,0,-0.0427,-0.0458,-0.0547,-0.0604,-0.0635,-0.0698,-0.0754,-0.076,-0.0774,-0.0777,-0.0764,-0.0702,-0.063,-0.0522,-0.0407,-0.0251,-0.0208,-0.0162,-0.0041,-0.0081,-0.0059,-0.0054,-0.0049,-0.01,-0.0101,-0.0102,-0.0103,0,-0.0412,-0.0459,-0.0527,-0.0601,-0.0636,-0.0665,-0.0727,-0.0765,-0.0722,-0.0729,-0.0671,-0.0578,-0.0489,-0.0373,-0.0221,-0.0147,-0.007,-0.0061,0.0008,0.0032,-0.0028,-0.0028,-0.0081,-0.0085,-0.0089,-0.0092,-0.0094,0,-0.0412,-0.0451,-0.0514,-0.0546,-0.0624,-0.0631,-0.0692,-0.0683,-0.0673,-0.0688,-0.0546,-0.0526,-0.0311,-0.0256,-0.0117,-0.0053,-0.0002,0.0041,0.0056,0.018,0.018,0.0178,0.0177,0.0184,0.0183,0.0183,0.0183,0,-0.0385,-0.0446,-0.0503,-0.0517,-0.0583,-0.0603,-0.0612,-0.0624,-0.0632,-0.0554,-0.0526,-0.042,-0.0317,-0.0201,-0.0053,0.0002,0.0037,0.0122,0.0078,0.0071,0.0177,0.0176,0.0183,0.0183,0.0183,0.0183,0.0183,0,-0.037,-0.0419,-0.0474,-0.0544,-0.0549,-0.056,-0.0593,-0.0589,-0.057,-0.0517,-0.0439,-0.0344,-0.0247,-0.0143,-0.002,-0.0013,0.0082,0.0137,0.014,0.0015,0.0048,0.0205,0.0182,0.0182,0.0182,0.0181,0.0181,0,-0.0352,-0.0411,-0.0421,-0.0455,-0.0481,-0.0449,-0.047,-0.0451,-0.0409,-0.0389,-0.0294,-0.023,-0.0123,-0.005,-0.0008,0.008,0.0109,0.0099,0.0169,0.0169,0.0087,0.0038,0.0164,0.018,0.018,0.018,0.018,0,-0.0332,-0.0381,-0.0369,-0.0394,-0.0364,-0.0359,-0.0358,-0.0347,-0.0358,-0.0249,-0.0247,-0.0155,-0.007,-0.0054,0.0022,0.0051,0.0106,0.0124,0.0126,0.0155,0.0173,0.0053,0.0042,0.0164,0.0164,0.0164,0.0179,0,-0.0335,-0.0353,-0.0354,-0.0357,-0.0342,-0.0322,-0.0282,-0.0252,-0.0182,-0.0145,-0.0095,-0.0008,0.0036,0.0054,0.0106,0.0115,0.0137,0.0162,0.0183,0.0157,0.0164,0.0165,0.0154,0.0154,0.0154,0.0154,0,0,-0.0292,-0.033,-0.0303,-0.0311,-0.0297,-0.0211,-0.0215,-0.0175,-0.0086,-0.0075,-0.0004,0.0065,0.0118,0.0118,0.013,0.0144,0.0171,0.016,0.0156,0.0156,0.0157,0.0163,0.0164,0.0154,0.0154,0.0154,0.0154,0,-0.0296,-0.0294,-0.0313,-0.029,-0.0235,-0.0206,-0.0187,-0.0114,-0.0068,-0.0019,0.004,0.0092,0.0145,0.0161,0.0173,0.0149,0.0194,0.0159,0.0127,0.0155,0.0156,0.0156,0.0162,0.0163,0.0153,0.0153,0.0153,0,-0.0272,-0.027,-0.0275,-0.026,-0.0213,-0.0205,-0.0133,-0.0081,-0.0065,0.0023,0.0078,0.0133,0.0159,0.0183,0.02,0.0203,0.021,0.0209,0.0207,0.0186,0.0216,0.0215,0.0214,0.0229,0.023,0.023,0,0,-0.0266,-0.0284,-0.0248,-0.0255,-0.0236,-0.0162,-0.013,-0.0077,-0.0016,0.0022,0.0085,0.013,0.0158,0.0187,0.0212,0.0227,0.0234,0.0221,0.0217,0.0215,0.0193,0.022,0.0219,0.0232,0.0232,0.0232,0,0,-0.0247,-0.0238,-0.0215,-0.0237,-0.0189,-0.0126,-0.0099,-0.0047,0.0023,0.0051,0.0116,0.0136,0.0183,0.0191,0.0214,0.0218,0.0225,0.0223,0.0237,0.0233,0.0229,0.0202,0.0255,0,0,0,0,0,-0.022,-0.025,-0.0231,-0.0228,-0.019,-0.0151,-0.0138,-0.0059,-0.0008,0.0013,0.0082,0.0118,0.0202,0.0225,0.0236,0.0239,0.0259,0.0255,0.025,0.0271,0.0266,0.0262,0,0,0,0,0,0,-0.0219,-0.022,-0.0229,-0.018,-0.0169,-0.0151,-0.0093,-0.0072,-0.0007,0.0007,0.0102,0.0118,0.0156,0.0222,0.0232,0.0234,0.0252,0.0257,0.0253,0.025,0.027,0.0266,0.0262,0,0,0,0,0,-0.0217,-0.0218,-0.0186,-0.0176,-0.0167,-0.0073,-0.0091,-0.0072,-0.0008,0.0053,0.0074,0.0057,0.0152,0.0167,0.0228,0.0228,0.0245,0.0249,0.0255,0.0252,0.0249,0.0268,0,0,0,0,0,0,-0.0216,-0.0192,-0.0181,-0.0173,-0.0153,-0.0069,-0.0057,-0.0073,0.0037,0.0056,0.0006,0.0015,0.0149,0.0162,0.0173,0.0224,0.024,0.0244,0.0246,0.0252,0.025,0.0248,0,0,0,0,0,0,-0.019,-0.0187,-0.0177,-0.0152,-0.014,-0.0066,-0.0056,-0.003,0.0038,-0.0016,-0.0005,0.0008,0.014,0.0157,0.0166,0.0203,0.0236,0.0239,0.0242,0.0243,0.025,0.0248,0,0,0,0,0,0,-0.0186,-0.0183,-0.0153,-0.0145,-0.0134,-0.0039,-0.0039,0.0001,0.0044,-0.0022,0.0052,0.0055,0.0134,0.0145,0.0161,0.0193,0.02,0.0236,0.0239,0.024,0.0241,0,0,0,0,0,0,0,-0.0183,-0.0238,-0.0228,-0.0139,-0.0129,-0.01,-0.0097,-0.0095,0.0045,0.0048,0.0051,0.0054,0.0217,0.0221,0.0224,0.0185,0,0,0.0236,0.0238,0,0,0,0,0,0,0,0,-0.0236,-0.0237,-0.0228,-0.0226,-0.0224,-0.0099,-0.0098,-0.0096,0.0045,0.0048,0.005,0.0053,0.0218,0.0221,0.0224,0,0,0,0,0,0,0,0,0,0,0,0,0,0,0,-0.0227,-0.0226,0,-0.0099,-0.0098,-0.0096,0.0046,0.0048,0.005,0.0052,0.0219,0.0221,0.0224,0,0,0,0,0,0,0,0,0,0,0,0,0,0,0,0,0,0,0,0,0,0,0,0,0,0,0,0,0,0,0,0,0,0,0,0,0,0,0,0,0,0,0,0,0,0,0,0,0,0,0,0,0,0,0,0,0,0,0,0,0,0,0,0,0,0,0,0,0]}]]]